THORAD DELTA 1 DEB, 8167

Orbit data source: Space-Track

THORAD DELTA 1 DEB, 8167 is space debris in SSO originally from a launch on Fri, 15 Nov 1974 UTC launched from the Air Force Western Test Range (AFWTR). Debris objects in space refer to the collection of defunct objects orbiting the Earth. Examples of debris include non-operational satellites, rocket bodies, and fragments generated from explosions, collisions, or faulty payload assembly.

Loading next visibility...
Identifier
8167, 1974-089AH
Orbit
SSO
Last TLE update
19 hours ago
Origin
Manufacturer
Unknown
Mission
Spacecraft
Bus & Motor
Unknown
Mass
Unknown
Launch date (UTC)
1974-11-15 (50 years ago)
Launch vehicle
Unknown
Launch site
Air Force Western Test Range (AFWTR)
Object type
Payload
Rocket body
Debris
Shape & HBR
Unknown
Radar Cross Section
Small (<0.1 m²)

Expand to show TLE details & history

TLE from 19 hours ago
0 THORAD DELTA 1 DEB
1  8167U 74089AH  25128.44888470  .00004549  00000-0  91551-2 0  9996
2  8167 101.3545 301.0220 0132321 115.3443 301.7679 13.31558305373521
Epoch: 2025-05-08T10:46Z
Definitive object data (Epoch: 2025-05-08T10:46:23.638Z)
Latitude
54.29368°
Longitude
-103.23401°
Altitude
1,098.244 km
Speed
7.333 km/s
True Right ascension
18h 59m 32s
True Declination
54° 08' 17"
Sunlit
Object was in daylight at TLE epoch
Visualization TLE readout
Latitude
-51.01295°
Longitude
-71.91904°
Altitude
1,256.85 km
Speed
7.179 km/s
Apparent Right ascension
23h 40m 18s
Apparent Declination
-52° 42' 24"
Sunlit
Object is in daylight
Visualization observer readout
Local Sidereal Time
14:12:33
Azimuth
129.145° SE
Elevation
-61.206°
Doppler factor
1
Orbital elements
Apogee altitude
1,237.766 km
Perigee altitude
1,038.849 km
Semi-major axis
7,516.445 km
Eccentricity
0.0132321
Inclination
101.3545°
RAAN
301.022°
Arg. of periapsis
115.3443°
True anomaly
300.46756°
Mean anomaly
301.7679°
Eccentric anomaly
301.11886°
Mean motion
3.33062 °/min
BSTAR
0.0091551
Orbital period
108.09 mins
Loading maneuver chart data...
Loading SW <> Apogee altitude chart data...
Loading historical data...
Loading historical data...
Loading historical data...
Loading historical data...
Loading historical data...
Loading historical data...
Loading historical data...

THORAD DELTA 1 DEB Visibility forecast

Observer location: undefined°, undefined°

Span
Click to sort rows by Start time (UTC) header in descending order
Start Az.
Max El. time (UTC)
Max El. Az.
Max El.
End time (UTC)
End Az.
10 mins2025-05-09 10:04:47.537Z116.01° SE2025-05-09 10:09:47.537Z65.066° ENE26.133°2025-05-09 10:14:47.537Z8.01° NNE
11 mins2025-05-09 11:50:47.537Z186.578° SSW2025-05-09 11:55:47.537Z247.766° W37.478°2025-05-09 12:01:47.537Z330.061° NNW
7 mins2025-05-09 23:12:47.537Z61.988° ENE2025-05-09 23:15:47.537Z96.925° ESE20.047°2025-05-09 23:19:47.537Z138.957° SSE
10 mins2025-05-10 00:57:47.537Z5.82° NNE2025-05-10 01:02:47.537Z276.926° WNW40.732°2025-05-10 01:07:47.537Z215.886° SW
|